カタログに戻る

FENGYUN 1C DEB

運用中PO
NORAD 36682·DEBRIS·🇨🇳 China

打ち上げ May 10, 1999 から Taiyuan Satellite Launch Center

Loading…

次のパス (今後24時間)

TLE

最新Source: Space-Track

元期: Sep 12, 2026, 02:43 UTC

1 36682U 99025DZC 26255.11339045  .00000734  00000-0  71868-3 0  9993
2 36682  98.4634 131.9528 0231059 266.7623  90.7071 13.70784474651373

AllMySatでFENGYUN 1C DEBをリアルタイム追跡

Download on the App Store